Hurghada, Egypt

1:22 AM EET on August 29, 2016 (GMT +0200)
Hurghada International

Weather History for HEGN - January, 2013

Change the Weather History Date:

Saturday, January 5, 2013

  Actual Average Record
Temperature  
Mean Temperature 64 °F -  
Max Temperature 75 °F 68 °F 84 °F (2009)
Min Temperature 53 °F 52 °F 46 °F (2002)
Degree Days  
Heating Degree Days 1    
Growing Degree Days 14 (Base 50)    
Moisture  
Dew Point 43 °F    
Average Humidity 48    
Maximum Humidity 88    
Minimum Humidity 27    
Precipitation  
Precipitation 0.00 in - - ()
Sea Level Pressure  
Sea Level Pressure 29.97 in    
Wind  
Wind Speed 9 mph ()    
Max Wind Speed 16 mph    
Max Gust Speed -    
Visibility 6.1 miles    
Events      
Averages and records for this station are not official NWS values.
T = Trace of Precipitation, MM = Missing Value Source: Averaged Metar Reports

Daily Weather History Graph

Daily Weather History Graph

Search for Another Location

Airport or City:

Trip Planner

Search our weather history database for the weather conditions in past years. The results will help you decide how hot, cold, wet, or windy it might be!

Date:

Astronomy

Jan. 05, 2013 Rise Set
Actual Time 6:35 AM EET 5:05 PM EET
Civil Twilight 6:09 AM EET 5:30 PM EET
Nautical Twilight 5:41 AM EET 5:59 PM EET
Astronomical Twilight 5:12 AM EET 6:27 PM EET
Moon No Moon Rise 11:25 AM EET (1/5)
Length of Visible Light 11h 20m
Length of Day
10h 29m
Waning Gibbous, 47% of the Moon is Illuminated
Jan 5
Waning Gibbous
Jan 11
New
Jan 19
First Quarter
Jan 27
Full
Feb 3
Last Quarter

Hourly Weather History & Observations

Time (EET) Temp. Dew Point Humidity Pressure Visibility Wind Dir Wind Speed Gust Speed Precip Events Conditions
12:00 AM 57.2 °F 39.2 °F 51% 30.01 in - WNW 9.2 mph - N/A   Clear
1:00 AM 57.2 °F 39.2 °F 51% 30.01 in - WNW 8.1 mph - N/A   Clear
2:00 AM 57 °F 39 °F 40% 30.00 in 6 mi WNW 6.9 mph - -  
2:00 AM 57.2 °F 39.2 °F 51% 29.98 in - WNW 6.9 mph - N/A   Clear
3:00 AM 55.4 °F 39.2 °F 54% 29.98 in - WNW 6.9 mph - N/A   Clear
4:00 AM 53.6 °F 39.2 °F 58% 29.98 in - West 8.1 mph - N/A   Clear
5:00 AM 55.4 °F 41.0 °F 58% 29.98 in - WNW 11.5 mph - N/A   Clear
7:00 AM 53.6 °F 50.0 °F 88% 29.98 in 6.2 mi WNW 15.0 mph - N/A   Partly Cloudy
8:00 AM 55.4 °F 41.0 °F 58% 30.01 in 6.2 mi WNW 11.5 mph - N/A   Partly Cloudy
9:00 AM 60.8 °F 41.0 °F 48% 30.01 in - WNW 13.8 mph - N/A   Clear
10:00 AM 66.2 °F 48.2 °F 52% 30.01 in - NNW 15.0 mph - N/A   Clear
11:00 AM 68.0 °F 48.2 °F 49% 30.01 in - NW 16.1 mph - N/A   Clear
12:00 PM 69.8 °F 48.2 °F 46% 29.98 in - North 13.8 mph - N/A   Clear
1:00 PM 75.2 °F 48.2 °F 38% 29.92 in 6.2 mi North 11.5 mph - N/A   Partly Cloudy
2:00 PM 75 °F 48 °F 27% 29.92 in 6 mi NNE 12.7 mph - -   Scattered Clouds
2:00 PM 75.2 °F 48.2 °F 38% 29.92 in 6.2 mi NNE 12.7 mph - N/A   Partly Cloudy
3:00 PM 75.2 °F 48.2 °F 38% 29.89 in 6.2 mi NNE 13.8 mph - N/A   Partly Cloudy
4:00 PM 71.6 °F 44.6 °F 38% 29.89 in 6.2 mi NNE 12.7 mph - N/A   Partly Cloudy
5:00 PM 69.8 °F 42.8 °F 38% 29.92 in 6.2 mi North 9.2 mph - N/A   Partly Cloudy
6:00 PM 66.2 °F 42.8 °F 43% 29.92 in - NNW 11.5 mph - N/A   Clear
7:00 PM 62.6 °F 39.2 °F 42% 29.95 in - NW 8.1 mph - N/A   Clear
8:00 PM 63 °F 40 °F 31% 29.97 in 6 mi NW 12.7 mph - -  
8:00 PM 62.6 °F 39.2 °F 42% 29.95 in - NW 12.7 mph - N/A   Clear
9:00 PM 60.8 °F 39.2 °F 45% 29.95 in - WNW 8.1 mph - N/A   Clear
10:00 PM 59.0 °F 41.0 °F 51% 29.98 in - WNW 8.1 mph - N/A   Clear
11:00 PM 57.2 °F 44.6 °F 63% 29.98 in - NW 10.4 mph - N/A   Clear